| time (UTC) | temp C | wind direction | speed KPH | gust KPH | rain 1hr cm | rain 24hr cm | rain mn cm | humidity % | barometer mb |
| 20260504231519 | 15 | 144 | 3.2 | 11.3 | 0.00 | 5.05 | 5.05 | 54 | 1008.6 |
| 20260504230017 | 16 | 150 | 3.2 | 8.0 | 0.00 | 5.05 | 5.05 | 52 | 1008.3 |
| 20260504224518 | 17 | 241 | 1.6 | 12.9 | 0.00 | 5.05 | 5.05 | 51 | 1008.2 |
| 20260504223017 | 17 | 234 | 1.6 | 6.4 | 0.00 | 5.05 | 5.05 | 49 | 1008.0 |
| 20260504221515 | 17 | 206 | 3.2 | 9.7 | 0.00 | 5.05 | 5.05 | 48 | 1007.8 |
| 20260504220015 | 18 | 284 | 1.6 | 11.3 | 0.00 | 5.05 | 5.05 | 47 | 1007.7 |
| 20260504214517 | 18 | 192 | 1.6 | 14.5 | 0.00 | 5.05 | 5.05 | 47 | 1007.8 |
| 20260504213022 | 19 | 259 | 4.8 | 14.5 | 0.00 | 5.05 | 5.05 | 45 | 1007.5 |
| 20260504211528 | 19 | 254 | 3.2 | 17.7 | 0.00 | 5.05 | 5.05 | 44 | 1007.6 |
| 20260504210011 | 19 | 167 | 3.2 | 12.9 | 0.00 | 5.05 | 5.05 | 43 | 1007.4 |
| 20260504204510 | 20 | 213 | 1.6 | 16.1 | 0.00 | 5.05 | 5.05 | 41 | 1007.5 |
| 20260504203010 | 20 | 207 | 3.2 | 16.1 | 0.13 | 5.05 | 5.05 | 38 | 1007.5 |
| 20260504201508 | 20 | 198 | 3.2 | 12.9 | 0.13 | 5.05 | 5.05 | 38 | 1007.4 |
| 20260504200007 | 21 | 334 | 4.8 | 14.5 | 2.82 | 5.05 | 5.05 | 38 | 1007.4 |
| 20260504194506 | 21 | 182 | 1.6 | 11.3 | 5.05 | 5.05 | 5.05 | 34 | 1007.5 |
| 20260504193006 | 21 | 269 | 4.8 | 14.5 | 4.93 | 4.93 | 4.93 | 35 | 1007.5 |
| 20260504191504 | 20 | 271 | 4.8 | 17.7 | 4.93 | 4.93 | 4.93 | 35 | 1007.5 |
| 20260504190002 | 21 | 323 | 4.8 | 12.9 | 2.11 | 2.11 | 2.11 | 33 | 1007.6 |
| 20260504184603 | 21 | 229 | 4.8 | 20.9 | 0.00 | 0.00 | 0.00 | 32 | 1007.8 |
| 20260504183058 | 21 | 190 | 3.2 | 20.9 | 0.00 | 0.00 | 0.00 | 34 | 1007.8 |
| 20260504181603 | 21 | 291 | 8.0 | 17.7 | 0.00 | 0.00 | 0.00 | 34 | 1008.0 |
| 20260504180057 | 20 | 290 | 8.0 | 22.5 | 0.00 | 0.00 | 0.00 | 34 | 1008.1 |
| 20260504174556 | 21 | 63 | 3.2 | 16.1 | 0.00 | 0.00 | 0.00 | 33 | 1008.1 |
| 20260504173056 | 20 | 293 | 4.8 | 17.7 | 0.00 | 0.00 | 0.00 | 34 | 1008.0 |
| 20260504171552 | 20 | 242 | 3.2 | 12.9 | 0.00 | 0.00 | 0.00 | 33 | 1008.1 |
| 20260504081509 | 5 | 315 | 0.0 | 0.0 | 0.00 | 0.00 | 0.00 | 81 | 1010.6 |
| 20260504044546 | 2 | 315 | 0.0 | 0.0 | 0.00 | 0.00 | 0.00 | 83 | 1010.6 |
| 20260504043047 | 2 | 315 | 0.0 | 1.6 | 0.00 | 0.00 | 0.00 | 83 | 1010.5 |
| 20260504041543 | 2 | 315 | 0.0 | 0.0 | 0.00 | 0.00 | 0.00 | 82 | 1010.4 |
| 20260504040041 | 2 | 315 | 0.0 | 0.0 | 0.00 | 0.00 | 0.00 | 82 | 1010.2 |
| 20260504034539 | 2 | 315 | 0.0 | 0.0 | 0.00 | 0.00 | 0.00 | 81 | 1010.2 |
| 20260504033037 | 2 | 315 | 0.0 | 0.0 | 0.00 | 0.00 | 0.00 | 82 | 1010.0 |
| 20260504031550 | 2 | 315 | 0.0 | 0.0 | 0.00 | 0.00 | 0.00 | 79 | 1010.0 |
| 20260504030035 | 3 | 315 | 0.0 | 0.0 | 0.00 | 0.00 | 0.00 | 78 | 1009.9 |
| 20260504024532 | 3 | 315 | 0.0 | 0.0 | 0.00 | 0.00 | 0.00 | 75 | 1009.9 |
| 20260504023030 | 3 | 315 | 0.0 | 0.0 | 0.00 | 0.00 | 0.00 | 74 | 1009.8 |
| 20260504021528 | 4 | 315 | 0.0 | 0.0 | 0.00 | 0.00 | 0.00 | 73 | 1009.8 |
| 20260504020025 | 5 | 315 | 0.0 | 0.0 | 0.00 | 0.00 | 0.00 | 70 | 1009.8 |
| 20260504014525 | 5 | 315 | 0.0 | 0.0 | 0.00 | 0.00 | 0.00 | 67 | 1009.7 |
| 20260504013016 | 6 | 315 | 0.0 | 0.0 | 0.00 | 0.00 | 0.00 | 66 | 1009.5 |
| 20260504011515 | 6 | 315 | 0.0 | 0.0 | 0.00 | 0.00 | 0.00 | 64 | 1009.3 |
| 20260504010015 | 7 | 315 | 0.0 | 0.0 | 0.00 | 0.00 | 0.00 | 60 | 1009.1 |
| 20260504004519 | 8 | 315 | 0.0 | 0.0 | 0.00 | 0.00 | 0.00 | 55 | 1008.9 |
| 20260504003013 | 8 | 315 | 0.0 | 0.0 | 0.00 | 0.00 | 0.00 | 52 | 1008.8 |
| 20260504001513 | 9 | 315 | 0.0 | 4.8 | 0.00 | 0.00 | 0.00 | 48 | 1008.5 |
| 20260504000012 | 10 | 330 | 1.6 | 8.0 | 0.00 | 0.00 | 0.00 | 46 | 1008.4 |
| 20260503234512 | 10 | 341 | 4.8 | 14.5 | 0.00 | 0.00 | 0.00 | 43 | 1008.2 |
| 20260503233016 | 10 | 338 | 6.4 | 17.7 | 0.00 | 0.00 | 0.00 | 43 | 1008.1 |